TimeEST,TemperatureF,Dew PointF,Humidity,Sea Level PressureIn,VisibilityMPH,Wind Direction,Wind SpeedMPH,Gust SpeedMPH,PrecipitationIn,Events,Conditions,WindDirDegrees,DateUTC
12:53 AM,35.1,28.9,78,29.66,10.0,SW,8.1,-,N/A,,Overcast,230,2013-02-28 05:53:00
2:53 AM,35.1,28.0,76,29.65,8.0,WSW,9.2,-,0.00,Snow,Light Snow,240,2013-02-28 07:53:00
3:12 AM,33.8,28.4,81,29.62,9.0,SW,6.9,-,0.00,,Overcast,220,2013-02-28 08:12:00
3:36 AM,33.8,28.4,81,29.62,8.0,Variable,6.9,-,0.00,,Overcast,0,2013-02-28 08:36:00
3:53 AM,34.0,28.0,79,29.64,10.0,SW,9.2,-,0.00,,Overcast,230,2013-02-28 08:53:00
4:53 AM,34.0,27.0,75,29.65,10.0,SW,6.9,-,N/A,,Overcast,220,2013-02-28 09:53:00
5:53 AM,34.0,26.1,73,29.65,10.0,WSW,9.2,-,N/A,,Overcast,240,2013-02-28 10:53:00
6:53 AM,33.1,27.0,78,29.65,10.0,Variable,6.9,-,N/A,,Overcast,0,2013-02-28 11:53:00
7:53 AM,33.1,27.0,78,29.66,10.0,WSW,9.2,-,N/A,,Overcast,240,2013-02-28 12:53:00
8:11 AM,33.8,26.6,75,29.64,10.0,WSW,5.8,-,N/A,,Overcast,240,2013-02-28 13:11:00
8:53 AM,33.1,27.0,78,29.67,8.0,SW,5.8,-,N/A,,Overcast,220,2013-02-28 13:53:00
9:16 AM,33.8,28.4,81,29.64,8.0,SW,5.8,-,N/A,,Overcast,230,2013-02-28 14:16:00
9:53 AM,33.1,28.0,82,29.67,6.0,SW,4.6,-,N/A,,Haze,230,2013-02-28 14:53:00
10:08 AM,33.8,28.4,81,29.65,5.0,SW,5.8,-,N/A,,Haze,230,2013-02-28 15:08:00
10:28 AM,33.8,28.4,81,29.65,1.8,WSW,8.1,-,0.00,Snow,Light Snow,240,2013-02-28 15:28:00
10:40 AM,33.8,28.4,81,29.65,1.0,WSW,5.8,-,0.01,Snow,Light Snow,240,2013-02-28 15:40:00
10:50 AM,33.8,30.2,87,29.65,1.2,SW,6.9,-,0.01,Snow,Light Snow,220,2013-02-28 15:50:00
10:53 AM,34.0,30.0,85,29.67,1.2,SW,5.8,-,0.01,Snow,Light Snow,230,2013-02-28 15:53:00
11:16 AM,35.6,30.2,81,29.65,3.0,West,8.1,-,0.00,Snow,Light Snow,260,2013-02-28 16:16:00
11:32 AM,35.6,30.2,81,29.65,7.0,West,8.1,-,0.00,,Overcast,260,2013-02-28 16:32:00
11:53 AM,35.1,30.0,82,29.68,10.0,West,11.5,17.3,0.00,,Overcast,260,2013-02-28 16:53:00
12:30 PM,35.6,30.2,81,29.66,10.0,WSW,8.1,-,N/A,,Overcast,240,2013-02-28 17:30:00
12:53 PM,36.0,30.0,79,29.68,10.0,WSW,9.2,-,N/A,,Overcast,250,2013-02-28 17:53:00
1:53 PM,37.0,30.0,76,29.68,10.0,West,8.1,-,N/A,,Overcast,260,2013-02-28 18:53:00
2:53 PM,37.0,30.0,76,29.70,10.0,NW,9.2,-,N/A,,Overcast,310,2013-02-28 19:53:00
3:42 PM,35.6,30.2,81,29.70,10.0,NW,9.2,17.3,N/A,,Overcast,310,2013-02-28 20:42:00
4:42 PM,35.6,30.2,81,29.72,10.0,WNW,8.1,-,0.00,,Overcast,290,2013-02-28 21:42:00
4:53 PM,36.0,30.0,79,29.75,10.0,WNW,6.9,-,0.00,,Overcast,290,2013-02-28 21:53:00
5:49 PM,35.6,30.2,81,29.76,1.8,NW,11.5,-,0.00,Snow,Light Snow,310,2013-02-28 22:49:00
5:53 PM,34.0,30.0,85,29.79,1.2,NW,10.4,-,0.00,Snow,Light Snow,320,2013-02-28 22:53:00
5:59 PM,35.6,30.2,81,29.77,2.5,NW,8.1,-,0.00,Snow,Light Snow,320,2013-02-28 22:59:00
6:02 PM,35.6,30.2,81,29.77,7.0,NW,6.9,-,0.00,,Overcast,320,2013-02-28 23:02:00
6:31 PM,33.8,30.2,87,29.79,2.0,NW,13.8,17.3,0.00,Snow,Light Snow,310,2013-02-28 23:31:00
6:37 PM,33.8,30.2,87,29.79,1.0,NW,9.2,-,0.01,Snow,Light Snow,320,2013-02-28 23:37:00
6:40 PM,33.8,30.2,87,29.80,1.2,NW,11.5,-,0.01,Snow,Light Snow,320,2013-02-28 23:40:00
6:44 PM,33.8,30.2,87,29.80,1.0,NW,12.7,-,0.01,Snow,Light Snow,320,2013-02-28 23:44:00
6:49 PM,33.8,30.2,87,29.80,1.2,NW,6.9,17.3,0.01,Snow,Light Snow,310,2013-02-28 23:49:00
6:53 PM,34.0,30.9,89,29.83,2.5,NW,6.9,-,0.01,Snow,Light Snow,310,2013-02-28 23:53:00
7:00 PM,33.8,30.2,87,29.81,9.0,NW,5.8,-,0.00,,Overcast,310,2013-03-01 00:00:00
7:51 PM,33.8,30.2,87,29.83,6.0,NW,8.1,-,0.00,,Overcast,310,2013-03-01 00:51:00
7:53 PM,34.0,30.0,85,29.86,5.0,NW,8.1,-,0.00,,Overcast,320,2013-03-01 00:53:00
8:53 PM,34.0,28.9,82,29.88,10.0,NW,11.5,-,0.00,,Overcast,310,2013-03-01 01:53:00
9:05 PM,33.8,28.4,81,29.86,9.0,NNW,9.2,-,N/A,,Overcast,330,2013-03-01 02:05:00
9:53 PM,33.1,28.0,82,29.89,10.0,NNW,10.4,-,N/A,,Overcast,330,2013-03-01 02:53:00
10:02 PM,33.8,28.4,81,29.87,10.0,NNW,10.4,-,N/A,,Overcast,330,2013-03-01 03:02:00
10:53 PM,33.1,27.0,78,29.89,10.0,NW,6.9,-,N/A,,Overcast,320,2013-03-01 03:53:00
11:53 PM,32.0,27.0,82,29.90,10.0,WNW,6.9,-,N/A,,Overcast,290,2013-03-01 04:53:00